Back to catalog

STARLINK-3648

AliveCommunicationsVLEO
NORAD 51993·PAYLOAD·🇺🇸 United States

Launched Mar 9, 2022 from Cape Canaveral Space Force Station

Loading…

Next Passes (next 24 hours)

TLE

FreshSource: CelesTrak SupGP

Epoch: Sep 14, 2026, 21:19 UTC

1 51993C 22025AP  26257.88868056  .00053706  00000+0  15364-2 0  2577
2 51993  53.1576 261.6827 0001191  98.0786 211.9063 15.35375346    13

Track STARLINK-3648 in real time with AllMySat

Download on the App Store